Location: Marsån
(66.4167°N, 22.2833°E)
Time: 08:46:30
(UTC+00:00)

Cosmos 1048 Rocket - Pass Details

Date: 24 February 2024
Orbit: 742 x 789 km, 74.0° (Epoch: 20 April)

Event Time Altitude Azimuth Distance (km) Brightness Sun altitude
Rises 20:02:59 0° 312° (NW) 3,299 8.6 -26.8°
Reaches altitude 10° 20:05:24 10° 315° (NW) 2,369 7.5 -27.0°
Enters shadow 20:10:46 69° 37° (NE) 853 4.1 -27.4°
